Tracking 29892 objects as of 21-Nov-2024
HD Live streaming from Space Station
objects crossing your sky now

CZ-6A DEB

Track CZ-6A DEB now!
10-day predictions


NORAD ID: 56621
Int'l Code: 2022-151AEV
Perigee: 832.5 km
Apogee: 1,001.6 km
Inclination: 98.9 °
Period: 103.2 minutes
Semi major axis: 7288 km
RCS: Unknown
Launch date: November 11, 2022
Source: People's Republic of China (PRC)
Launch site: Taiyaun Space Center, China (TSC)

Note: This is SATELLITE DEBRIS
Your satellite tracking list
Your tracking list is empty




NASA's NSSDC Master Catalog

Two Line Element Set (TLE):
1 56621U 22151AEV 24325.38957585  .00001905  00000-0  13593-2 0  9995
2 56621  98.8712 309.3562 0116025 210.6684 148.7662 13.95355423 85206
Source of the keplerian elements: AFSPC